Terminal Aerodrome Forecast
Issued by NWS

Home | Current Version | Previous Version | Text Only | Print | Product List | Glossary On
Versions: 1 2 3 4 5 6 7 8 9 10 11 12 13 14 15
000
FTUS45 KBYZ 242329
TAFLVM
TAF
KLVM 242329Z 2500/2524 VRB06KT P6SM SCT100
     FM251200 21014KT P6SM SKC=

USA.gov is the U.S. government's official web portal to all federal, state and local government web resources and services.